User: anonymous   Login
Location: Unspecified
(0.0000°N, 0.0000°E)
Time: 06:57:53
(UTC+00:00)
Language:

FORMOSAT 3B - Orbit

View from above orbital plane
View from above orbital plane
View from above satellite
View from above satellite

Ground track
Ground track

The orbit data is extracted from the following two-line orbital elements,

1 29048U 06011B   17202.89893002 +.00000056 +00000-0 +38607-4 0  9991
2 29048 071.9671 028.4743 0043119 046.7822 313.6901 14.28524887592201
Epoch (UTC): 21 July 2017 21:34:27
Eccentricity: 0.0043119
inclination: 71.9671°
perigee height: 766 km
apogee height: 827 km
right ascension of ascending node: 28.4743°
argument of perigee: 46.7822°
revolutions per day: 14.28524887
mean anomaly at epoch: 313.6901°
orbit number at epoch: 59220

The dashed part of the orbit path shows where the satellite is in the earth's shadow,  

DLR